OK1KKY-18 Weather Reports


Display with metric or nautical units.
time (UTC)temp
F
wind
direction
speed
MPH
gust
MPH
rain 1hr
in
rain 24hr
in
rain mn
in
humidity
%
barometer
mb
20260506090602 57 0.0 0.0 0.00 0.00 0.00 71 1007.8
20260506085602 57 0.0 0.0 0.00 0.00 0.00 72 1007.8
20260506084602 57 0.0 0.0 0.00 0.00 0.00 71 1007.6
20260506083602 56 0.0 0.0 0.00 0.00 0.00 71 1007.6
20260506082602 56 0.0 0.0 0.00 0.00 0.00 72 1007.5
20260506081603 55 0.0 0.0 0.00 0.00 0.00 75 1007.6
20260506080603 55 0.0 0.0 0.00 0.00 0.00 76 1007.4
20260506072603 56 0.0 0.0 0.00 0.00 0.00 76 1007.2
20260506071603 56 0.0 0.0 0.00 0.00 0.00 75 1007.1
20260506070603 54 0.0 0.0 0.00 0.00 0.00 80 1007.1
20260506061603 54 0.0 0.0 0.00 0.00 0.00 82 1006.9
20260506060603 53 0.0 0.0 0.00 0.00 0.00 82 1007.1
20260506050603 52 0.0 0.0 0.00 0.00 0.00 84 1006.8
20260506044603 52 0.0 0.0 0.00 0.00 0.00 86 1006.6
20260506043603 52 0.0 0.0 0.00 0.00 0.00 85 1006.5
20260506042603 52 0.0 0.0 0.00 0.00 0.00 86 1006.4
20260506041603 53 0.0 0.0 0.00 0.00 0.00 84 1006.5
20260506040603 52 0.0 0.0 0.00 0.00 0.00 87 1006.4
20260506035603 53 0.0 0.0 0.00 0.00 0.00 89 1006.4
20260506034603 52 0.0 0.0 0.00 0.00 0.00 89 1006.4
20260506033603 53 0.0 0.0 0.00 0.00 0.00 90 1006.4
20260506032603 52 0.0 0.0 0.00 0.00 0.00 90 1006.3
20260506031606 52 0.0 0.0 0.00 0.00 0.00 90 1006.4
20260506030601 52 0.0 0.0 0.00 0.00 0.00 91 1006.2
20260506025601 52 0.0 0.0 0.00 0.00 0.00 91 1006.3
20260506024601 52 0.0 0.0 0.00 0.00 0.00 91 1006.3
20260506023602 52 0.0 0.0 0.00 0.00 0.00 90 1006.3
20260506022601 52 0.0 0.0 0.00 0.00 0.00 91 1006.4
20260506021601 52 0.0 0.0 0.00 0.00 0.00 91 1006.2
20260506020601 52 0.0 0.0 0.00 0.00 0.00 90 1006.2
20260506015602 52 0.0 0.0 0.00 0.00 0.00 89 1006.0
20260506014601 53 0.0 0.0 0.00 0.00 0.00 87 1005.7
20260506013601 53 0.0 0.0 0.00 0.00 0.00 87 1005.5
20260506012602 53 0.0 0.0 0.00 0.00 0.00 88 1005.6
20260506011602 53 0.0 0.0 0.00 0.00 0.00 88 1005.8
20260506010601 53 0.0 0.0 0.00 0.00 0.00 87 1006.1
20260506005602 54 0.0 0.0 0.00 0.00 0.00 87 1006.4
20260506004601 54 0.0 0.0 0.00 0.00 0.00 86 1006.7
20260506003602 54 0.0 0.0 0.00 0.00 0.00 87 1006.7
20260506002601 54 0.0 0.0 0.00 0.00 0.00 89 1006.5
20260506001601 55 0.0 0.0 0.00 0.00 0.00 90 1006.5
20260506000601 55 0.0 0.0 0.00 0.00 0.00 89 1006.4
20260505235601 55 0.0 0.0 0.00 0.00 0.00 89 1006.4
20260505234601 55 0.0 0.0 0.00 0.00 0.00 88 1006.5
20260505233601 55 0.0 0.0 0.00 0.00 0.00 88 1006.7
20260505232602 55 0.0 0.0 0.00 0.00 0.00 88 1006.8
20260505231602 55 0.0 0.0 0.00 0.00 0.00 87 1006.8
20260505230602 56 0.0 0.0 0.00 0.00 0.00 87 1006.9
20260505225601 56 0.0 0.0 0.00 0.00 0.00 84 1006.9
20260505224602 57 0.0 0.0 0.00 0.00 0.00 83 1006.8
20260505223602 57 0.0 0.0 0.00 0.00 0.00 85 1006.7
20260505222601 56 0.0 0.0 0.00 0.00 0.00 84 1006.1
20260505221602 56 0.0 0.0 0.00 0.00 0.00 86 1006.0
20260505220602 56 0.0 0.0 0.00 0.00 0.00 86 1005.8
20260505215602 56 0.0 0.0 0.00 0.00 0.00 85 1005.9
20260505214601 57 0.0 0.0 0.00 0.00 0.00 84 1005.8
20260505213602 57 0.0 0.0 0.00 0.00 0.00 84 1005.9
20260505212602 57 0.0 0.0 0.00 0.00 0.00 84 1006.0
20260505211601 57 0.0 0.0 0.00 0.00 0.00 85 1006.0
20260505210602 57 0.0 0.0 0.00 0.00 0.00 85 1005.8
20260505205601 57 0.0 0.0 0.00 0.00 0.00 85 1005.9
20260505204602 57 0.0 0.0 0.00 0.00 0.00 84 1005.9
20260505203602 57 0.0 0.0 0.00 0.00 0.00 84 1005.9
20260505202602 57 0.0 0.0 0.00 0.00 0.00 85 1006.0
20260505201602 57 0.0 0.0 0.00 0.00 0.00 85 1006.3
20260505200602 57 0.0 0.0 0.00 0.00 0.00 85 1006.3
20260505195602 57 0.0 0.0 0.00 0.00 0.00 84 1006.4
20260505194602 58 0.0 0.0 0.00 0.00 0.00 83 1006.4
20260505193602 58 0.0 0.0 0.00 0.00 0.00 81 1006.6
20260505192602 59 0.0 0.0 0.00 0.00 0.00 81 1006.9
20260505191602 61 0.0 0.0 0.00 0.00 0.00 73 1007.2
20260505190602 63 0.0 0.0 0.00 0.00 0.00 67 1007.1
20260505185602 63 0.0 0.0 0.00 0.00 0.00 60 1006.8
20260505184602 63 0.0 0.0 0.00 0.00 0.00 59 1006.8
20260505183602 64 0.0 0.0 0.00 0.00 0.00 57 1006.6
20260505182602 64 0.0 0.0 0.00 0.00 0.00 61 1006.4
20260505181602 64 0.0 0.0 0.00 0.00 0.00 61 1006.0
20260505180602 65 0.0 0.0 0.00 0.00 0.00 59 1006.0
20260505175601 65 0.0 0.0 0.00 0.00 0.00 58 1006.0
20260505174602 66 0.0 0.0 0.00 0.00 0.00 58 1005.9
20260505173602 66 0.0 0.0 0.00 0.00 0.00 57 1006.0
20260505172601 66 0.0 0.0 0.00 0.00 0.00 56 1006.0
20260505171602 67 0.0 0.0 0.00 0.00 0.00 55 1006.1
20260505170601 68 0.0 0.0 0.00 0.00 0.00 54 1006.0
20260505165602 68 0.0 0.0 0.00 0.00 0.00 52 1006.2
20260505164602 69 0.0 0.0 0.00 0.00 0.00 49 1006.1
20260505163601 69 0.0 0.0 0.00 0.00 0.00 48 1006.2
20260505162601 69 0.0 0.0 0.00 0.00 0.00 48 1006.2
20260505161602 69 0.0 0.0 0.00 0.00 0.00 46 1006.3
20260505160601 70 0.0 0.0 0.00 0.00 0.00 43 1006.4
20260505152604 73 0.0 0.0 0.00 0.00 0.00 31 1006.5
20260505151606 74 0.0 0.0 0.00 0.00 0.00 31 1006.6
20260505150600 74 0.0 0.0 0.00 0.00 0.00 31 1006.5
20260505140600 77 0.0 0.0 0.00 0.00 0.00 28 1006.9
20260505124600 75 0.0 0.0 0.00 0.00 0.00 32 1007.7
20260505123600 74 0.0 0.0 0.00 0.00 0.00 33 1007.8
20260505122600 73 0.0 0.0 0.00 0.00 0.00 35 1008.0
20260505121600 72 0.0 0.0 0.00 0.00 0.00 33 1007.9
20260505120600 73 0.0 0.0 0.00 0.00 0.00 34 1007.9
20260505115602 73 0.0 0.0 0.00 0.00 0.00 34 1007.8
20260505114602 74 0.0 0.0 0.00 0.00 0.00 34 1007.9
20260505113601 72 0.0 0.0 0.00 0.00 0.00 36 1007.9
20260505112602 73 0.0 0.0 0.00 0.00 0.00 32 1008.0
20260505111602 72 0.0 0.0 0.00 0.00 0.00 34 1008.1
20260505110604 72 0.0 0.0 0.00 0.00 0.00 34 1008.2
20260505101600 71 0.0 0.0 0.00 0.00 0.00 37 1008.7
20260505100600 70 0.0 0.0 0.00 0.00 0.00 37 1008.6
20260505095600 69 0.0 0.0 0.00 0.00 0.00 38 1008.7
20260505094600 69 0.0 0.0 0.00 0.00 0.00 39 1008.7
20260505093600 69 0.0 0.0 0.00 0.00 0.00 40 1008.8
20260505092600 69 0.0 0.0 0.00 0.00 0.00 41 1008.8
20260505091600 68 0.0 0.0 0.00 0.00 0.00 40 1008.8